THOR ABLESTAR DEB, 15783

Orbit data source: Space-Track

THOR ABLESTAR DEB, 15783 is space debris in LEO originally from a launch on Thu, 29 Jun 1961 UTC launched from the Air Force Eastern Test Range (AFETR). Debris objects in space refer to the collection of defunct objects orbiting the Earth. Examples of debris include non-operational satellites, rocket bodies, and fragments generated from explosions, collisions, or faulty payload assembly.

Loading next visibility...
Identifier
15783, 1961-015LG
Orbit
LEO
Country
Flag of USUS
Related business
Manufacturer
Unknown
Mission
Spacecraft
Bus & Motor
Unknown
Mass
Unknown
Launch date (UTC)
1961-06-29 (64 years ago)
Launch vehicle
Unknown
Launch site
Air Force Eastern Test Range (AFETR)
Object type
Payload
Rocket body
Debris
Shape & HBR
Unknown shape, 0.1 m
Radar Cross Section
Small (<0.1 m²)

Expand to show TLE details & history
Last TLE update: 1 day ago

TLE from 1 day ago
0 THOR ABLESTAR DEB
1 15783U 61015LG  25302.52860870  .00009738  00000-0  13047-2 0  9999
2 15783  67.0384 332.8459 0030848  56.2595  95.8465 14.79425258148640
Epoch: 2025-10-29T12:41Z
TLE epoch observation values (Epoch: 2025-10-29T12:41:11.791Z)
Latitude
25.24515°
Longitude
-87.01439°
Altitude
635.716 km
Speed
7.542 km/s
True Right ascension
09h 25m 32s
True Declination
25° 06' 38"
Sunlit
Object was in daylight at epoch
Visualization orbit readout
Latitude
Unknown
Longitude
Unknown
Altitude
Unknown
Speed
Unknown
Apparent Right ascension
Unknown
Apparent Declination
Unknown
Sunlit
N/A
Visualization observer readout
Local Sidereal Time
13:45:53
Azimuth
Unknown
Elevation
Unknown
Doppler factor
Unknown
Orbital elements
Apogee altitude
651.053 km
Perigee altitude
607.819 km
Semi-major axis
7,007.573 km
Eccentricity
0.00308
Inclination
67.0384°
RAAN
332.8459°
Arg. of periapsis
56.2595°
True anomaly
96.19801°
Mean anomaly
95.8465°
Eccentric anomaly
96.02227°
Mean motion
3.69991 °/min
Orbital period
97.3 mins
BSTAR
0.0013047

Documentation

Showing up to 5 results
|